Time,TemperatureF,DewpointF,PressureIn,WindDirection,WindDirectionDegrees,WindSpeedMPH,WindSpeedGustMPH,Humidity,HourlyPrecipIn,Conditions,Clouds,dailyrainin,SoftwareType,DateUTC
2013-02-10 00:01:00,32.0,30.0,-100.00,WNW,293,4.0,7.0,94,-99.99,,,-99.99,,2013-02-10 08:01:00,
2013-02-10 00:11:00,31.0,30.0,-100.00,West,271,1.0,3.0,95,-99.99,,,-99.99,,2013-02-10 08:11:00,
2013-02-10 00:21:00,31.0,30.0,-100.00,WNW,298,2.0,5.0,96,-99.99,,,-99.99,,2013-02-10 08:21:00,
2013-02-10 00:31:00,31.0,30.0,-100.00,WNW,296,2.0,4.0,97,-99.99,,,-99.99,,2013-02-10 08:31:00,
2013-02-10 00:43:00,31.0,30.0,-100.00,NW,325,2.0,4.0,97,-99.99,,,-99.99,,2013-02-10 08:43:00,
2013-02-10 00:52:00,30.0,29.0,-100.00,East,82,2.0,3.0,97,-99.99,,,-99.99,,2013-02-10 08:52:00,
2013-02-10 01:01:00,30.0,29.0,-100.00,East,86,2.0,4.0,97,-99.99,,,-99.99,,2013-02-10 09:01:00,
2013-02-10 01:11:00,31.0,30.0,-100.00,West,266,3.0,9.0,95,-99.99,,,-99.99,,2013-02-10 09:11:00,
2013-02-10 01:21:00,31.0,30.0,-100.00,SSW,212,0.0,1.0,95,-99.99,,,-99.99,,2013-02-10 09:21:00,
2013-02-10 01:31:00,31.0,30.0,-100.00,East,95,2.0,4.0,95,-99.99,,,-99.99,,2013-02-10 09:31:00,
2013-02-10 01:41:00,31.0,30.0,-100.00,East,95,2.0,3.0,95,-99.99,,,-99.99,,2013-02-10 09:41:00,
2013-02-10 01:51:00,31.0,29.0,-100.00,WSW,255,1.0,4.0,94,-99.99,,,-99.99,,2013-02-10 09:51:00,
2013-02-10 02:01:00,31.0,30.0,-100.00,ESE,107,1.0,2.0,95,-99.99,,,-99.99,,2013-02-10 10:01:00,
2013-02-10 02:11:00,30.0,29.0,-100.00,East,82,2.0,3.0,95,-99.99,,,-99.99,,2013-02-10 10:11:00,
2013-02-10 02:21:00,31.0,30.0,-100.00,East,81,3.0,4.0,95,-99.99,,,-99.99,,2013-02-10 10:21:00,
2013-02-10 02:31:00,31.0,29.0,-100.00,ENE,71,2.0,4.0,93,-99.99,,,-99.99,,2013-02-10 10:31:00,
2013-02-10 02:41:00,31.0,29.0,-100.00,NNE,21,1.0,4.0,92,-99.99,,,-99.99,,2013-02-10 10:41:00,
2013-02-10 02:51:00,31.0,29.0,-100.00,WSW,256,2.0,3.0,94,-99.99,,,-99.99,,2013-02-10 10:51:00,
2013-02-10 03:01:00,32.0,30.0,-100.00,WSW,246,0.0,2.0,94,-99.99,,,-99.99,,2013-02-10 11:01:00,
2013-02-10 03:11:00,31.0,29.0,-100.00,North,-999,0.0,0.0,94,-99.99,,,-99.99,,2013-02-10 11:11:00,
2013-02-10 03:21:00,31.0,29.0,-100.00,East,96,1.0,2.0,94,-99.99,,,-99.99,,2013-02-10 11:21:00,
2013-02-10 03:31:00,31.0,30.0,-100.00,East,81,0.0,1.0,95,-99.99,,,-99.99,,2013-02-10 11:31:00,
2013-02-10 03:42:00,31.0,30.0,-100.00,ENE,70,0.0,2.0,95,-99.99,,,-99.99,,2013-02-10 11:42:00,
2013-02-10 03:52:00,31.0,30.0,-100.00,East,95,2.0,3.0,95,-99.99,,,-99.99,,2013-02-10 11:52:00,
2013-02-10 04:01:00,31.0,30.0,-100.00,ENE,66,1.0,2.0,96,-99.99,,,-99.99,,2013-02-10 12:01:00,
2013-02-10 04:12:00,31.0,30.0,-100.00,East,82,2.0,3.0,96,-99.99,,,-99.99,,2013-02-10 12:12:00,
2013-02-10 04:21:00,31.0,30.0,-100.00,East,80,2.0,2.0,96,-99.99,,,-99.99,,2013-02-10 12:21:00,
2013-02-10 04:32:00,31.0,30.0,-100.00,East,86,2.0,2.0,96,-99.99,,,-99.99,,2013-02-10 12:32:00,
2013-02-10 04:41:00,31.0,30.0,-100.00,ENE,76,2.0,3.0,95,-99.99,,,-99.99,,2013-02-10 12:41:00,
2013-02-10 04:52:00,32.0,30.0,-100.00,North,350,1.0,3.0,94,-99.99,,,-99.99,,2013-02-10 12:52:00,
2013-02-10 05:02:00,32.0,30.0,-100.00,East,84,0.0,1.0,93,-99.99,,,-99.99,,2013-02-10 13:02:00,
2013-02-10 05:11:00,31.0,30.0,-100.00,NW,308,1.0,2.0,95,-99.99,,,-99.99,,2013-02-10 13:11:00,
2013-02-10 05:21:00,32.0,31.0,-100.00,ENE,66,0.0,1.0,95,-99.99,,,-99.99,,2013-02-10 13:21:00,
2013-02-10 05:31:00,31.0,30.0,-100.00,SW,225,0.0,1.0,95,-99.99,,,-99.99,,2013-02-10 13:31:00,
2013-02-10 05:41:00,31.0,30.0,-100.00,SW,225,0.0,1.0,95,-99.99,,,-99.99,,2013-02-10 13:41:00,
2013-02-10 05:51:00,32.0,31.0,-100.00,West,276,0.0,1.0,96,-99.99,,,-99.99,,2013-02-10 13:51:00,
2013-02-10 06:01:00,32.0,31.0,-100.00,NW,305,1.0,3.0,97,-99.99,,,-99.99,,2013-02-10 14:01:00,
2013-02-10 06:11:00,31.0,30.0,-100.00,SSW,196,0.0,1.0,97,-99.99,,,-99.99,,2013-02-10 14:11:00,
2013-02-10 06:21:00,31.0,30.0,-100.00,West,260,1.0,2.0,97,-99.99,,,-99.99,,2013-02-10 14:21:00,
2013-02-10 06:31:00,31.0,30.0,-100.00,West,260,1.0,2.0,97,-99.99,,,-99.99,,2013-02-10 14:31:00,
2013-02-10 06:41:00,31.0,30.0,-100.00,West,260,1.0,2.0,97,-99.99,,,-99.99,,2013-02-10 14:41:00,
2013-02-10 06:52:00,32.0,31.0,-100.00,West,273,2.0,4.0,96,-99.99,,,-99.99,,2013-02-10 14:52:00,
2013-02-10 07:01:00,32.0,31.0,-100.00,West,270,5.0,8.0,95,-99.99,,,-99.99,,2013-02-10 15:01:00,
2013-02-10 07:11:00,32.0,31.0,-100.00,West,270,5.0,8.0,95,-99.99,,,-99.99,,2013-02-10 15:11:00,
2013-02-10 07:21:00,32.0,30.0,-100.00,West,273,4.0,7.0,93,-99.99,,,-99.99,,2013-02-10 15:21:00,
2013-02-10 07:31:00,32.0,30.0,-100.00,West,279,4.0,8.0,92,-99.99,,,-99.99,,2013-02-10 15:31:00,
2013-02-10 07:41:00,32.0,30.0,-100.00,West,272,4.0,7.0,91,-99.99,,,-99.99,,2013-02-10 15:41:00,
2013-02-10 07:51:00,32.0,29.0,-100.00,West,281,4.0,6.0,89,-99.99,,,-99.99,,2013-02-10 15:51:00,
2013-02-10 08:01:00,32.0,29.0,-100.00,West,273,4.0,7.0,88,-99.99,,,-99.99,,2013-02-10 16:01:00,
2013-02-10 08:11:00,32.0,29.0,-100.00,WNW,282,4.0,6.0,89,-99.99,,,-99.99,,2013-02-10 16:11:00,
2013-02-10 08:21:00,32.0,29.0,-100.00,West,279,4.0,8.0,88,-99.99,,,-99.99,,2013-02-10 16:21:00,
2013-02-10 08:31:00,33.0,30.0,-100.00,West,273,4.0,7.0,90,-99.99,,,-99.99,,2013-02-10 16:31:00,
2013-02-10 08:42:00,33.0,31.0,-100.00,West,264,4.0,6.0,92,-99.99,,,-99.99,,2013-02-10 16:42:00,
2013-02-10 08:51:00,32.0,30.0,-100.00,West,271,5.0,8.0,92,-99.99,,,-99.99,,2013-02-10 16:51:00,
2013-02-10 09:01:00,33.0,30.0,-100.00,West,271,4.0,7.0,90,-99.99,,,-99.99,,2013-02-10 17:01:00,
2013-02-10 09:11:00,34.0,30.0,-100.00,West,266,5.0,10.0,86,-99.99,,,-99.99,,2013-02-10 17:11:00,
2013-02-10 09:21:00,34.0,29.0,-100.00,WNW,288,8.0,13.0,82,-99.99,,,-99.99,,2013-02-10 17:21:00,
2013-02-10 09:31:00,34.0,28.0,-100.00,WNW,284,8.0,13.0,78,-99.99,,,-99.99,,2013-02-10 17:31:00,
2013-02-10 09:42:00,35.0,29.0,-100.00,West,265,8.0,13.0,77,-99.99,,,-99.99,,2013-02-10 17:42:00,
2013-02-10 09:52:00,35.0,28.0,-100.00,WSW,258,7.0,10.0,75,-99.99,,,-99.99,,2013-02-10 17:52:00,
2013-02-10 10:01:00,35.0,28.0,-100.00,West,266,7.0,13.0,76,-99.99,,,-99.99,,2013-02-10 18:01:00,
2013-02-10 10:11:00,35.0,29.0,-100.00,West,273,7.0,13.0,77,-99.99,,,-99.99,,2013-02-10 18:11:00,
2013-02-10 10:21:00,35.0,29.0,-100.00,West,265,7.0,12.0,77,-99.99,,,-99.99,,2013-02-10 18:21:00,
2013-02-10 10:31:00,35.0,29.0,-100.00,West,259,8.0,13.0,78,-99.99,,,-99.99,,2013-02-10 18:31:00,
2013-02-10 10:41:00,35.0,29.0,-100.00,WSW,241,8.0,12.0,79,-99.99,,,-99.99,,2013-02-10 18:41:00,
2013-02-10 10:52:00,35.0,29.0,-100.00,WSW,255,8.0,13.0,78,-99.99,,,-99.99,,2013-02-10 18:52:00,
2013-02-10 11:01:00,35.0,28.0,-100.00,West,266,9.0,14.0,75,-99.99,,,-99.99,,2013-02-10 19:01:00,
2013-02-10 11:11:00,35.0,28.0,-100.00,WSW,255,9.0,14.0,76,-99.99,,,-99.99,,2013-02-10 19:11:00,
2013-02-10 11:21:00,35.0,27.0,-100.00,West,268,10.0,18.0,73,-99.99,,,-99.99,,2013-02-10 19:21:00,
2013-02-10 11:31:00,35.0,28.0,-100.00,WSW,258,9.0,13.0,75,-99.99,,,-99.99,,2013-02-10 19:31:00,
2013-02-10 11:42:00,36.0,29.0,-100.00,West,269,7.0,13.0,76,-99.99,,,-99.99,,2013-02-10 19:42:00,
2013-02-10 11:51:00,36.0,30.0,-100.00,West,273,9.0,15.0,78,-99.99,,,-99.99,,2013-02-10 19:51:00,
2013-02-10 12:01:00,35.0,31.0,-100.00,WSW,242,9.0,16.0,86,-99.99,,,-99.99,,2013-02-10 20:01:00,
2013-02-10 12:11:00,35.0,32.0,-100.00,WSW,257,10.0,16.0,90,-99.99,,,-99.99,,2013-02-10 20:11:00,
2013-02-10 12:21:00,35.0,33.0,-100.00,WSW,249,9.0,15.0,92,-99.99,,,-99.99,,2013-02-10 20:21:00,
2013-02-10 12:31:00,35.0,33.0,-100.00,WSW,246,10.0,15.0,92,-99.99,,,-99.99,,2013-02-10 20:31:00,
2013-02-10 12:42:00,34.0,32.0,-100.00,WSW,254,10.0,15.0,94,-99.99,,,-99.99,,2013-02-10 20:42:00,
2013-02-10 12:52:00,34.0,33.0,-100.00,WSW,256,10.0,15.0,95,-99.99,,,-99.99,,2013-02-10 20:52:00,
2013-02-10 13:02:00,35.0,33.0,-100.00,WSW,255,8.0,14.0,92,-99.99,,,-99.99,,2013-02-10 21:02:00,
2013-02-10 13:11:00,35.0,33.0,-100.00,WSW,247,11.0,17.0,91,-99.99,,,-99.99,,2013-02-10 21:11:00,
2013-02-10 13:21:00,35.0,33.0,-100.00,WSW,255,9.0,15.0,93,-99.99,,,-99.99,,2013-02-10 21:21:00,
2013-02-10 13:32:00,35.0,33.0,-100.00,WSW,247,11.0,16.0,91,-99.99,,,-99.99,,2013-02-10 21:32:00,
2013-02-10 13:42:00,36.0,33.0,-100.00,WSW,252,11.0,17.0,87,-99.99,,,-99.99,,2013-02-10 21:42:00,
2013-02-10 13:51:00,36.0,33.0,-100.00,WSW,243,11.0,17.0,87,-99.99,,,-99.99,,2013-02-10 21:51:00,
2013-02-10 14:01:00,36.0,32.0,-100.00,WSW,250,9.0,15.0,86,-99.99,,,-99.99,,2013-02-10 22:01:00,
2013-02-10 14:11:00,36.0,32.0,-100.00,WSW,243,10.0,16.0,85,-99.99,,,-99.99,,2013-02-10 22:11:00,
2013-02-10 14:21:00,37.0,32.0,-100.00,WSW,245,10.0,16.0,82,-99.99,,,-99.99,,2013-02-10 22:21:00,
2013-02-10 14:31:00,37.0,32.0,-100.00,WSW,248,10.0,15.0,81,-99.99,,,-99.99,,2013-02-10 22:31:00,
2013-02-10 14:42:00,37.0,31.0,-100.00,West,261,9.0,15.0,80,-99.99,,,-99.99,,2013-02-10 22:42:00,
2013-02-10 14:52:00,37.0,31.0,-100.00,West,260,9.0,15.0,79,-99.99,,,-99.99,,2013-02-10 22:52:00,
2013-02-10 15:01:00,36.0,30.0,-100.00,WSW,244,10.0,17.0,80,-99.99,,,-99.99,,2013-02-10 23:01:00,
2013-02-10 15:11:00,36.0,30.0,-100.00,WSW,247,9.0,15.0,80,-99.99,,,-99.99,,2013-02-10 23:11:00,
2013-02-10 15:21:00,36.0,30.0,-100.00,WSW,253,9.0,14.0,80,-99.99,,,-99.99,,2013-02-10 23:21:00,
2013-02-10 15:31:00,36.0,31.0,-100.00,WSW,256,8.0,14.0,81,-99.99,,,-99.99,,2013-02-10 23:31:00,
2013-02-10 15:41:00,36.0,31.0,-100.00,West,259,9.0,14.0,82,-99.99,,,-99.99,,2013-02-10 23:41:00,
2013-02-10 15:52:00,36.0,32.0,-100.00,West,264,8.0,14.0,85,-99.99,,,-99.99,,2013-02-10 23:52:00,
2013-02-10 16:01:00,36.0,32.0,-100.00,WSW,248,8.0,13.0,85,-99.99,,,-99.99,,2013-02-11 00:01:00,
2013-02-10 16:11:00,36.0,32.0,-100.00,WSW,248,8.0,13.0,85,-99.99,,,-99.99,,2013-02-11 00:11:00,
2013-02-10 16:21:00,35.0,32.0,-100.00,WSW,252,8.0,13.0,88,-99.99,,,-99.99,,2013-02-11 00:21:00,
2013-02-10 16:31:00,35.0,32.0,-100.00,WSW,245,9.0,13.0,89,-99.99,,,-99.99,,2013-02-11 00:31:00,
2013-02-10 16:41:00,35.0,32.0,-100.00,WSW,251,8.0,13.0,89,-99.99,,,-99.99,,2013-02-11 00:41:00,
2013-02-10 16:51:00,35.0,32.0,-100.00,WSW,255,7.0,11.0,88,-99.99,,,-99.99,,2013-02-11 00:51:00,
2013-02-10 17:01:00,35.0,32.0,-100.00,WSW,249,8.0,14.0,87,-99.99,,,-99.99,,2013-02-11 01:01:00,
2013-02-10 17:11:00,35.0,32.0,-100.00,WSW,252,8.0,12.0,88,-99.99,,,-99.99,,2013-02-11 01:11:00,
2013-02-10 17:21:00,35.0,32.0,-100.00,WSW,251,8.0,13.0,90,-99.99,,,-99.99,,2013-02-11 01:21:00,
2013-02-10 17:31:00,34.0,32.0,-100.00,WSW,253,8.0,12.0,92,-99.99,,,-99.99,,2013-02-11 01:31:00,
2013-02-10 17:41:00,34.0,32.0,-100.00,WSW,253,8.0,12.0,92,-99.99,,,-99.99,,2013-02-11 01:41:00,
2013-02-10 17:52:00,34.0,32.0,-100.00,WSW,253,7.0,11.0,94,-99.99,,,-99.99,,2013-02-11 01:52:00,
2013-02-10 18:01:00,34.0,33.0,-100.00,WSW,251,8.0,13.0,95,-99.99,,,-99.99,,2013-02-11 02:01:00,
2013-02-10 18:11:00,34.0,33.0,-100.00,WSW,250,8.0,11.0,96,-99.99,,,-99.99,,2013-02-11 02:11:00,
2013-02-10 18:21:00,34.0,33.0,-100.00,WSW,252,7.0,12.0,96,-99.99,,,-99.99,,2013-02-11 02:21:00,
2013-02-10 18:31:00,34.0,33.0,-100.00,WSW,246,6.0,10.0,97,-99.99,,,-99.99,,2013-02-11 02:31:00,
2013-02-10 18:41:00,34.0,33.0,-100.00,SW,218,6.0,9.0,97,-99.99,,,-99.99,,2013-02-11 02:41:00,
2013-02-10 18:52:00,34.0,33.0,-100.00,WSW,241,5.0,8.0,97,-99.99,,,-99.99,,2013-02-11 02:52:00,
2013-02-10 19:01:00,34.0,33.0,-100.00,WSW,241,5.0,8.0,97,-99.99,,,-99.99,,2013-02-11 03:01:00,
2013-02-10 19:11:00,34.0,33.0,-100.00,WSW,241,5.0,8.0,97,-99.99,,,-99.99,,2013-02-11 03:11:00,
2013-02-10 19:21:00,34.0,34.0,-100.00,WSW,255,7.0,12.0,98,-99.99,,,-99.99,,2013-02-11 03:21:00,
2013-02-10 19:31:00,34.0,34.0,-100.00,West,260,6.0,9.0,98,-99.99,,,-99.99,,2013-02-11 03:31:00,
2013-02-10 19:41:00,34.0,34.0,-100.00,WSW,250,6.0,10.0,98,-99.99,,,-99.99,,2013-02-11 03:41:00,
2013-02-10 19:52:00,33.0,33.0,-100.00,WSW,255,6.0,9.0,99,-99.99,,,-99.99,,2013-02-11 03:52:00,
2013-02-10 20:01:00,33.0,33.0,-100.00,WSW,255,6.0,9.0,99,-99.99,,,-99.99,,2013-02-11 04:01:00,
2013-02-10 20:11:00,33.0,33.0,-100.00,WSW,239,5.0,8.0,99,-99.99,,,-99.99,,2013-02-11 04:11:00,
2013-02-10 20:21:00,33.0,33.0,-100.00,WSW,251,5.0,8.0,99,-99.99,,,-99.99,,2013-02-11 04:21:00,
2013-02-10 20:31:00,33.0,33.0,-100.00,WSW,250,4.0,7.0,99,-99.99,,,-99.99,,2013-02-11 04:31:00,
2013-02-10 20:41:00,33.0,33.0,-100.00,West,260,3.0,6.0,99,-99.99,,,-99.99,,2013-02-11 04:41:00,
2013-02-10 20:51:00,33.0,33.0,-100.00,WSW,258,4.0,7.0,99,-99.99,,,-99.99,,2013-02-11 04:51:00,
2013-02-10 21:01:00,33.0,33.0,-100.00,WSW,258,4.0,7.0,99,-99.99,,,-99.99,,2013-02-11 05:01:00,
2013-02-10 21:11:00,33.0,33.0,-100.00,WSW,251,4.0,7.0,99,-99.99,,,-99.99,,2013-02-11 05:11:00,
2013-02-10 21:22:00,33.0,33.0,-100.00,West,267,5.0,7.0,99,-99.99,,,-99.99,,2013-02-11 05:22:00,
2013-02-10 21:31:00,33.0,33.0,-100.00,West,272,3.0,6.0,99,-99.99,,,-99.99,,2013-02-11 05:31:00,
2013-02-10 21:41:00,32.0,32.0,-100.00,WSW,247,2.0,4.0,99,-99.99,,,-99.99,,2013-02-11 05:41:00,
2013-02-10 21:52:00,32.0,32.0,-100.00,WSW,256,2.0,4.0,99,-99.99,,,-99.99,,2013-02-11 05:52:00,
2013-02-10 22:01:00,32.0,32.0,-100.00,West,280,2.0,3.0,99,-99.99,,,-99.99,,2013-02-11 06:01:00,
2013-02-10 22:11:00,32.0,32.0,-100.00,West,276,2.0,3.0,100,-99.99,,,-99.99,,2013-02-11 06:11:00,
2013-02-10 22:21:00,32.0,32.0,-100.00,West,272,1.0,2.0,100,-99.99,,,-99.99,,2013-02-11 06:21:00,
2013-02-10 22:31:00,32.0,32.0,-100.00,West,272,1.0,2.0,100,-99.99,,,-99.99,,2013-02-11 06:31:00,
2013-02-10 22:42:00,32.0,32.0,-100.00,West,271,2.0,4.0,100,-99.99,,,-99.99,,2013-02-11 06:42:00,
2013-02-10 22:51:00,32.0,32.0,-100.00,WNW,282,3.0,4.0,100,-99.99,,,-99.99,,2013-02-11 06:51:00,
2013-02-10 23:01:00,33.0,33.0,-100.00,West,267,2.0,4.0,100,-99.99,,,-99.99,,2013-02-11 07:01:00,
2013-02-10 23:11:00,33.0,33.0,-100.00,West,263,2.0,4.0,100,-99.99,,,-99.99,,2013-02-11 07:11:00,
2013-02-10 23:21:00,33.0,33.0,-100.00,West,262,3.0,6.0,100,-99.99,,,-99.99,,2013-02-11 07:21:00,
2013-02-10 23:31:00,33.0,33.0,-100.00,West,280,4.0,6.0,100,-99.99,,,-99.99,,2013-02-11 07:31:00,
2013-02-10 23:41:00,33.0,33.0,-100.00,WNW,287,3.0,6.0,100,-99.99,,,-99.99,,2013-02-11 07:41:00,
2013-02-10 23:51:00,33.0,33.0,-100.00,West,275,2.0,4.0,100,-99.99,,,-99.99,,2013-02-11 07:51:00,